Weather History for KMLU - April, 2013

Change the Weather History Date:

Tuesday, April 2, 2013

  Actual Average Record
Temperature  
Mean Temperature 62 °F 62 °F  
Max Temperature 72 °F 75 °F 89 °F (1963)
Min Temperature 51 °F 50 °F 35 °F (1987)
Degree Days  
Heating Degree Days 3 5  
Month to date heating degree days 5 10  
Since 1 July heating degree days 2032 2154  
Cooling Degree Days 0 2  
Month to date cooling degree days 0 4  
Year to date cooling degree days 21 47  
Growing Degree Days 12 (Base 50)    
Moisture  
Dew Point 49 °F    
Average Humidity 75    
Maximum Humidity 96    
Minimum Humidity 53    
Precipitation  
Precipitation 0.00 in 0.14 in 2.39 in (1979)
Month to date precipitation 0.00 0.29  
Year to date precipitation 16.21 14.65  
Snow  
Snow 0.00 in - - ()
Month to date snowfall 0.0  
Since 1 July snowfall 0.3  
Snow Depth 0.00 in    
Sea Level Pressure  
Sea Level Pressure 30.09 in    
Wind  
Wind Speed 11 mph (NE)    
Max Wind Speed 25 mph    
Max Gust Speed 35 mph    
Visibility 10 miles    
Events      
T = Trace of Precipitation, MM = Missing Value Source: NWS Daily Summary

Daily Weather History Graph

Daily Weather History Graph

Search for Another Location

Airport or City:

Trip Planner

Search our weather history database for the weather conditions in past years. The results will help you decide how hot, cold, wet, or windy it might be!

Date:

Astronomy

Apr. 02, 2013 Rise Set
Actual Time 6:54 AM CDT 7:29 PM CDT
Civil Twilight 6:29 AM CDT 7:53 PM CDT
Nautical Twilight 6:00 AM CDT 8:22 PM CDT
Astronomical Twilight 5:31 AM CDT 8:52 PM CDT
Moon 1:20 AM CDT (4/2) 11:59 AM CDT (4/2)
Length of Visible Light 13h 23m
Length of Day
12h 34m
Waning Gibbous, 55% of the Moon is Illuminated
Apr 2
Waning Gibbous
Apr 2
Last Quarter
Apr 10
New
Apr 18
First Quarter
Apr 25
Full

Hourly Weather History & Observations

Time (CDT) Temp. Dew Point Humidity Pressure Visibility Wind Dir Wind Speed Gust Speed Precip Events Conditions
12:53 AM 52.0 °F 50.0 °F 93% 30.08 in 10.0 mi Calm Calm - N/A   Clear
1:53 AM 53.1 °F 51.1 °F 93% 30.08 in 10.0 mi Calm Calm - N/A   Clear
2:53 AM 52.0 °F 48.9 °F 89% 30.08 in 10.0 mi ENE 4.6 mph - N/A   Clear
3:53 AM 55.9 °F 52.0 °F 87% 30.07 in 10.0 mi ENE 3.5 mph - N/A   Clear
4:53 AM 55.0 °F 52.0 °F 89% 30.09 in 10.0 mi East 3.5 mph - N/A   Clear
5:53 AM 54.0 °F 51.1 °F 90% 30.09 in 10.0 mi ENE 6.9 mph - N/A   Clear
6:53 AM 53.1 °F 51.1 °F 93% 30.11 in 10.0 mi Calm Calm - N/A   Clear
7:53 AM 54.0 °F 51.1 °F 90% 30.12 in 8.0 mi NE 3.5 mph - N/A   Clear
8:53 AM 57.0 °F 51.1 °F 81% 30.14 in 10.0 mi NE 13.8 mph - 0.01 in   Clear
9:53 AM 61.0 °F 50.0 °F 67% 30.15 in 10.0 mi ENE 9.2 mph - N/A   Clear
10:53 AM 63.0 °F 50.0 °F 63% 30.14 in 10.0 mi ENE 9.2 mph - N/A   Clear
11:53 AM 66.9 °F 50.0 °F 54% 30.13 in 10.0 mi NE 10.4 mph - N/A   Clear
12:53 PM 69.1 °F 51.1 °F 53% 30.10 in 10.0 mi NE 10.4 mph - N/A   Clear
1:53 PM 72.0 °F 53.1 °F 51% 30.08 in 10.0 mi ENE 10.4 mph - N/A   Clear
2:53 PM 71.1 °F 53.1 °F 53% 30.06 in 10.0 mi NNE 11.5 mph - N/A   Clear
3:53 PM 71.1 °F 53.1 °F 53% 30.05 in 10.0 mi NE 13.8 mph - N/A   Clear
4:53 PM 69.1 °F 53.1 °F 57% 30.04 in 10.0 mi NE 12.7 mph - N/A   Clear
5:53 PM 64.4 °F 51.8 °F 64% 30.03 in 10.0 mi NE 18.4 mph 25.3 mph N/A   Clear
6:53 PM 63.0 °F 48.9 °F 60% 30.04 in 10.0 mi NE 19.6 mph 26.5 mph N/A   Partly Cloudy
7:53 PM 59.0 °F 46.0 °F 62% 30.04 in 10.0 mi NE 18.4 mph 28.8 mph N/A   Mostly Cloudy
8:53 PM 57.0 °F 44.1 °F 62% 30.06 in 10.0 mi NE 13.8 mph 24.2 mph N/A   Overcast
9:53 PM 54.0 °F 39.0 °F 57% 30.09 in 10.0 mi NE 15.0 mph 21.9 mph N/A   Mostly Cloudy
10:53 PM 53.6 °F 37.4 °F 54% 30.10 in 10.0 mi NE 16.1 mph 23.0 mph N/A   Overcast
11:53 PM 51.1 °F 37.0 °F 59% 30.09 in 10.0 mi NNE 15.0 mph - N/A   Scattered Clouds